METAR Formatted Surface Weather Observation
Issued by NWS

Home | Current Version | Previous Version | Text Only | Print | Product List | Glossary On
Versions: 1 2 3 4 5 6 7 8 9 10 11 12 13 14 15 16 17 18 19 20 21 22 23 24 25 26 27 28 29 30 31 32 33 34 35 36 37 38 39 40 41 42 43 44 45 46 47 48 49 50
000
SAUS41 KAKQ 271757
MTRNTU
METAR KNTU 271756Z 36014G23KT 2SM -DZ BR OVC005 07/04 A2978 RMK AO2
PK WND 35027/1700 SLP088 P0002 60005 T00720044 10089 20072 53014



USA.gov is the U.S. government's official web portal to all federal, state and local government web resources and services.